Location: Home
(42.5358°N, 72.7383°W)
Time: 17:33:29
(UTC-04:00)

Explorer 11/Cluster Stage 4 - Pass Details

Date: 08 August 2024
Orbit: 464 x 1208 km, 28.8° (Epoch: 19 September)

Event Time Altitude Azimuth Distance (km) Brightness Sun altitude
Rises 05:31:21 0° 256° (WSW) 4,055 - -4.1°
Exits shadow 05:33:06 - 249° (WSW) 3,647 9.3 -3.8°
Reaches altitude 10° 05:35:51 10° 234° (SW) 3,137 9.0 -3.4°
Maximum altitude 05:39:34 14° 205° (SSW) 2,841 9.0 -2.8°
Drops below altitude 10° 05:43:16 10° 177° (S) 3,112 9.4 -2.1°
Sets 05:47:43 0° 154° (SSE) 3,998 10.2 -1.4°
